TimeCST,TemperatureF,Dew PointF,Humidity,Sea Level PressureIn,VisibilityMPH,Wind Direction,Wind SpeedMPH,Gust SpeedMPH,PrecipitationIn,Events,Conditions,WindDirDegrees,DateUTC
12:15 AM,6.4,2.3,83,30.15,10.0,NW,3.5,-,N/A,,Clear,310,2013-01-01 06:15:00
12:35 AM,6.3,2.3,84,30.15,10.0,NW,4.6,-,N/A,,Clear,310,2013-01-01 06:35:00
12:55 AM,5.5,1.4,83,30.14,10.0,NW,5.8,-,N/A,,Clear,320,2013-01-01 06:55:00
1:15 AM,5.2,1.0,83,30.14,10.0,NW,4.6,-,N/A,,Clear,320,2013-01-01 07:15:00
1:35 AM,4.8,0.7,83,30.15,10.0,NW,3.5,-,N/A,,Clear,320,2013-01-01 07:35:00
1:55 AM,4.6,0.7,84,30.15,10.0,NW,3.5,-,N/A,,Clear,320,2013-01-01 07:55:00
2:15 AM,3.6,-0.2,84,30.15,10.0,Calm,Calm,-,N/A,,Clear,0,2013-01-01 08:15:00
2:35 AM,0.3,-1.8,91,30.16,10.0,Calm,Calm,-,N/A,,Clear,0,2013-01-01 08:35:00
3:15 AM,2.7,-0.0,88,30.16,10.0,NNW,3.5,-,N/A,,Clear,330,2013-01-01 09:15:00
3:35 AM,2.7,-0.4,87,30.16,10.0,NW,4.6,-,N/A,,Clear,320,2013-01-01 09:35:00
3:55 AM,2.3,-0.6,88,30.16,10.0,NW,3.5,-,N/A,,Clear,310,2013-01-01 09:55:00
4:15 AM,-2.9,-5.8,87,30.16,10.0,Calm,Calm,-,N/A,,Clear,0,2013-01-01 10:15:00
4:35 AM,-0.4,-2.9,89,30.16,10.0,Calm,Calm,-,N/A,,Clear,0,2013-01-01 10:35:00
5:15 AM,-3.1,-6.2,87,30.18,10.0,Calm,Calm,-,N/A,,Clear,0,2013-01-01 11:15:00
5:35 AM,-2.4,-5.1,88,30.19,1.8,Calm,Calm,-,N/A,Snow,Light Snow,0,2013-01-01 11:35:00
6:15 AM,-2.4,-5.1,88,30.19,0.5,Calm,Calm,-,N/A,Snow,Snow,0,2013-01-01 12:15:00
6:35 AM,-3.3,-6.0,88,30.20,0.8,Calm,Calm,-,N/A,Snow,Snow,0,2013-01-01 12:35:00
6:55 AM,-2.9,-5.8,87,30.20,10.0,Calm,Calm,-,N/A,,Clear,0,2013-01-01 12:55:00
7:35 AM,-4.4,-7.6,86,30.22,10.0,Calm,Calm,-,N/A,,Clear,0,2013-01-01 13:35:00
8:15 AM,-2.6,-5.8,86,30.22,0.5,Calm,Calm,-,N/A,Snow,Snow,0,2013-01-01 14:15:00
8:35 AM,-0.2,-3.5,86,30.22,5.0,NW,3.5,-,N/A,Snow,Light Snow,320,2013-01-01 14:35:00
9:15 AM,1.4,-2.2,85,30.22,10.0,WNW,3.5,-,N/A,,Clear,300,2013-01-01 15:15:00
9:35 AM,1.9,-1.8,84,30.21,10.0,WNW,3.5,-,N/A,,Clear,300,2013-01-01 15:35:00
10:35 AM,3.7,-0.8,82,30.19,10.0,NW,6.9,-,N/A,,Clear,310,2013-01-01 16:35:00
10:55 AM,4.6,-0.4,80,30.19,10.0,NW,5.8,-,N/A,,Clear,310,2013-01-01 16:55:00
11:15 AM,5.5,-0.6,76,30.19,10.0,WNW,5.8,-,N/A,,Clear,300,2013-01-01 17:15:00
11:35 AM,6.4,-0.6,73,30.19,10.0,West,3.5,-,N/A,,Clear,260,2013-01-01 17:35:00
11:55 AM,7.0,-0.6,71,30.18,10.0,West,4.6,-,N/A,,Clear,270,2013-01-01 17:55:00
12:15 PM,8.1,-0.0,70,30.18,10.0,WSW,4.6,-,N/A,,Clear,250,2013-01-01 18:15:00
12:35 PM,8.8,0.5,69,30.17,10.0,West,4.6,-,N/A,,Clear,270,2013-01-01 18:35:00
1:15 PM,10.4,1.0,66,30.16,10.0,WSW,4.6,-,N/A,,Clear,240,2013-01-01 19:15:00
1:35 PM,10.6,1.0,65,30.16,10.0,WSW,5.8,-,N/A,,Clear,250,2013-01-01 19:35:00
2:15 PM,11.3,1.4,64,30.15,10.0,West,8.1,-,N/A,,Clear,270,2013-01-01 20:15:00
2:35 PM,11.3,1.2,64,30.16,10.0,WSW,6.9,-,N/A,,Clear,250,2013-01-01 20:35:00
3:15 PM,11.3,0.9,63,30.15,10.0,West,4.6,-,N/A,,Clear,260,2013-01-01 21:15:00
3:35 PM,11.7,0.7,61,30.15,10.0,WSW,5.8,-,N/A,,Clear,250,2013-01-01 21:35:00
3:55 PM,11.3,0.5,62,30.14,10.0,West,3.5,-,N/A,,Clear,260,2013-01-01 21:55:00
4:55 PM,9.5,0.5,67,30.14,10.0,Calm,Calm,-,N/A,,Clear,0,2013-01-01 22:55:00
5:15 PM,9.1,0.9,69,30.14,10.0,Calm,Calm,-,N/A,,Clear,0,2013-01-01 23:15:00
5:35 PM,4.8,-0.6,78,30.14,10.0,Calm,Calm,-,N/A,,Clear,0,2013-01-01 23:35:00
5:55 PM,1.4,-3.1,81,30.14,10.0,Calm,Calm,-,N/A,,Clear,0,2013-01-01 23:55:00
6:15 PM,3.9,-0.9,80,30.15,10.0,Calm,Calm,-,N/A,,Clear,0,2013-01-02 00:15:00
6:35 PM,6.6,0.7,77,30.14,10.0,SW,3.5,-,N/A,,Clear,230,2013-01-02 00:35:00
6:55 PM,6.6,0.7,77,30.14,10.0,WSW,3.5,-,N/A,,Clear,240,2013-01-02 00:55:00
7:15 PM,6.3,0.5,77,30.15,10.0,Calm,Calm,-,N/A,,Clear,0,2013-01-02 01:15:00
7:35 PM,5.5,0.3,79,30.15,10.0,Calm,Calm,-,N/A,,Clear,0,2013-01-02 01:35:00
7:55 PM,4.6,-0.4,80,30.14,10.0,SW,3.5,-,N/A,,Clear,230,2013-01-02 01:55:00
8:15 PM,2.7,-1.8,81,30.14,10.0,Calm,Calm,-,N/A,,Clear,0,2013-01-02 02:15:00
9:15 PM,-1.5,-4.0,89,30.13,10.0,SW,3.5,-,N/A,,Clear,220,2013-01-02 03:15:00
9:35 PM,-1.7,-4.7,87,30.13,10.0,Calm,Calm,-,N/A,,Clear,0,2013-01-02 03:35:00
9:55 PM,-0.8,-3.6,88,30.12,10.0,Calm,Calm,-,N/A,,Clear,0,2013-01-02 03:55:00
10:15 PM,-2.9,-5.6,88,30.13,10.0,Calm,Calm,-,N/A,,Clear,0,2013-01-02 04:15:00
10:35 PM,-1.5,-4.4,88,30.12,10.0,Calm,Calm,-,N/A,,Mostly Cloudy,0,2013-01-02 04:35:00
10:55 PM,1.2,-2.2,86,30.12,10.0,Calm,Calm,-,N/A,,Overcast,0,2013-01-02 04:55:00
11:15 PM,3.6,-1.3,80,30.12,10.0,Calm,Calm,-,N/A,,Overcast,0,2013-01-02 05:15:00
11:35 PM,5.7,0.3,78,30.11,10.0,SW,3.5,-,N/A,,Overcast,220,2013-01-02 05:35:00
11:55 PM,6.4,0.3,76,30.11,10.0,SSW,3.5,-,N/A,,Overcast,210,2013-01-02 05:55:00